This is the latest recevied weather packets stored in our database for station/object NN5DX-12. If no packets are shown the sender has not sent any weather packets the latest 10 day(s).
| Time | Temp. | Humidity | Pressure | Rain* | Wind** | Luminosity | Snow |
|---|---|---|---|---|---|---|---|
| 1777945817 | 4.44° C | 92% | 1011.9 hPa | 0.25 mm | - | - | - |
| 1777945517 | 5° C | 92% | 1011.7 hPa | 0.25 mm | - | - | - |
| 1777945217 | 5° C | 92% | 1011.8 hPa | 0.25 mm | - | - | - |
| 1777944917 | 5° C | 92% | 1011.5 hPa | 0.25 mm | - | - | - |
| 1777944617 | 5° C | 92% | 1011.4 hPa | 0.25 mm | - | - | - |
| 1777944317 | 5° C | 92% | 1011.5 hPa | 0.25 mm | - | - | - |
| 1777944017 | 5° C | 92% | 1011.8 hPa | 0.25 mm | - | - | - |
| 1777943717 | 5° C | 91% | 1011.9 hPa | 0 mm | - | - | - |
| 1777943417 | 5° C | 91% | 1011.9 hPa | 0 mm | - | - | - |
| 1777943117 | 5° C | 90% | 1011.8 hPa | 0.25 mm | - | - | - |
| 1777942817 | 5° C | 90% | 1011.7 hPa | 0.25 mm | - | - | - |
| 1777942517 | 5° C | 90% | 1010.4 hPa | 0.76 mm | - | - | - |
| 1777942217 | 5° C | 90% | 1010.4 hPa | 1.02 mm | - | - | - |
| 1777941917 | 5° C | 89% | 1010.4 hPa | 1.27 mm | - | - | - |
| 1777941617 | 5° C | 89% | 1010.6 hPa | 1.27 mm | - | - | - |
| 1777941317 | 5° C | 91% | 1010.6 hPa | 1.27 mm | - | - | - |
| 1777941017 | 5° C | 91% | 1010.5 hPa | 1.52 mm | - | - | - |
| 1777940717 | 5° C | 91% | 1011.3 hPa | 1.78 mm | - | - | - |
| 1777940417 | 5° C | 91% | 1011.2 hPa | 2.03 mm | - | - | - |
| 1777940117 | 4.44° C | 91% | 1011.6 hPa | 2.03 mm | - | - | - |
| 1777939817 | 5° C | 90% | 1011.7 hPa | 2.03 mm | - | - | - |
| 1777939517 | 5° C | 89% | 1012 hPa | 2.03 mm | - | - | - |
| 1777939217 | 5° C | 89% | 1012 hPa | 2.03 mm | - | - | - |
| 1777938917 | 5° C | 88% | 1011.9 hPa | 2.29 mm | - | - | - |
| 1777938617 | 5° C | 89% | 1012 hPa | 2.03 mm | - | - | - |
* Rain latest hour (hover to see other rain measurements)
** Current wind speed in m/s (hover to see current wind gust speed)